CAPE
3 2 3 3 3 2 2 4 2 2 1 2 1 1 1 1 0 0 1 1 1 1 1 0 0 1 6 6 6 6 8 9 9 9 8 7 5 5 3 2 2 0 nan nan nan nan 1 4 4 4 3 3 3 3 3 4 4 4 4 5 5 6 7 7 7 7 6 3 1 1 nan nan nan nan nan nan nan nan nan nan nan nan nan nan nan nan
3 3 3 3 3 2 2 5 2 2 1 1 1 1 1 1 0 0 1 1 1 1 1 0 0 2 10 9 8 8 10 11 11 11 10 7 6 6 4 4 4 1 0 nan nan 1 3 4 4 0 nan nan nan nan nan nan nan nan nan 0 0 1 1 2 2 2 2 0 nan nan nan nan nan nan nan nan nan nan nan nan nan nan nan nan nan nan
2 2 2 3 3 2 2 4 3 3 1 1 1 1 1 1 1 1 1 1 1 0 0 0 0 1 8 11 9 9 12 14 12 12 11 9 6 6 5 5 5 2 1 2 2 5 5 2 2 nan nan nan nan nan nan nan nan nan nan nan nan nan nan nan nan nan nan nan nan nan nan nan nan nan nan nan nan nan nan nan nan nan nan nan nan nan
1 1 2 3 3 4 2 4 5 5 2 2 2 2 2 0 0 0 1 0 0 nan 0 0 0 1 3 7 9 9 12 12 12 12 11 10 7 7 6 6 6 5 4 5 5 7 6 2 2 nan nan nan nan nan nan nan nan nan nan nan nan nan nan nan nan nan nan nan nan nan nan nan nan nan nan nan nan nan nan nan nan nan nan nan nan nan
1 1 2 2 2 3 3 2 1 1 1 2 2 2 3 0 0 0 1 1 1 0 0 nan nan 0 2 5 8 8 12 14 13 13 11 9 9 9 8 7 7 7 7 7 7 7 5 1 1 nan nan nan nan nan nan nan nan nan nan nan nan nan nan nan nan nan nan nan nan nan nan nan nan nan nan nan nan nan nan nan nan nan nan nan nan nan
1 1 2 2 2 0 1 1 1 1 1 0 0 0 0 0 0 0 1 1 1 1 1 0 0 0 1 5 5 5 8 14 11 11 11 9 8 8 8 8 8 8 8 7 7 7 4 1 1 nan nan nan nan nan nan nan nan nan nan nan nan nan nan nan nan nan nan nan nan nan nan nan nan nan nan nan nan nan nan nan nan nan nan nan nan nan
2 2 3 1 1 1 1 1 1 1 0 0 0 0 0 0 0 0 1 1 1 1 1 0 0 0 nan 0 0 0 6 12 10 10 9 8 8 8 8 8 8 8 9 9 9 6 3 0 0 nan nan nan nan nan nan nan nan nan nan nan nan nan nan nan nan nan nan nan nan nan nan nan nan nan nan nan nan nan nan nan nan nan nan nan nan nan
0 1 1 1 1 1 2 2 2 2 1 0 0 0 1 1 1 1 1 1 1 1 1 1 1 1 nan nan nan nan 8 12 10 10 9 8 10 10 10 10 10 9 7 5 5 2 nan nan nan nan nan nan nan nan nan nan nan nan nan nan nan nan nan nan nan nan nan nan nan nan nan nan nan nan nan nan nan nan nan nan nan nan nan nan nan nan
0 0 1 0 0 1 1 2 1 1 1 1 0 0 0 0 1 1 1 1 1 1 1 1 1 2 0 nan nan nan 4 10 7 7 5 3 5 5 10 13 13 10 4 1 1 nan nan nan nan nan nan nan nan nan nan nan nan nan nan nan nan nan nan nan nan nan nan nan nan nan nan nan nan nan nan nan nan nan nan nan nan nan nan nan nan nan
0 0 1 2 2 3 2 1 1 1 1 1 3 3 1 0 0 0 1 1 1 1 0 2 2 3 2 nan nan nan 3 6 1 1 0 nan 9 9 5 4 4 2 0 nan nan nan nan nan nan nan nan nan nan nan nan nan nan nan nan nan nan nan nan nan nan nan nan nan nan nan nan nan nan nan nan nan nan nan nan nan nan nan nan nan nan nan
0 1 1 1 1 1 1 2 1 1 1 1 2 2 2 1 0 0 0 1 1 1 0 0 0 5 4 2 nan nan 2 1 nan nan nan nan nan nan nan nan nan nan nan nan nan nan nan nan nan nan nan nan nan nan nan nan nan nan nan nan nan nan nan nan nan nan nan nan nan nan nan nan nan nan nan nan nan nan nan nan nan nan nan nan nan nan
0 1 1 1 1 0 1 1 2 2 2 2 3 3 4 2 0 0 1 1 1 2 1 1 1 0 2 7 0 0 0 nan nan nan nan nan nan nan nan nan nan nan nan nan nan nan nan nan nan nan nan nan nan nan nan nan nan nan nan nan nan nan nan nan nan nan nan nan nan nan nan nan nan nan nan nan nan nan nan nan nan nan nan nan nan nan
0 2 0 1 1 1 1 1 2 2 2 3 2 2 2 1 0 0 1 2 2 4 3 3 3 0 nan nan nan nan nan nan nan nan nan nan nan nan nan nan nan nan nan nan nan nan nan nan nan nan nan nan nan nan nan nan nan nan nan nan nan nan nan nan nan nan nan nan nan nan nan nan nan nan nan nan nan nan nan nan nan nan nan nan nan nan
1 1 1 2 2 2 2 2 1 1 2 3 4 4 2 0 nan nan 0 1 1 2 3 3 3 nan nan nan nan nan nan nan nan nan nan nan nan nan nan nan nan nan nan nan nan nan nan nan nan nan nan nan nan nan nan nan nan nan nan nan nan nan nan nan nan nan nan nan nan nan nan nan nan nan nan 0 0 0 0 nan nan nan nan nan nan nan
1 1 1 1 1 2 2 1 1 1 2 3 0 0 nan nan nan nan 0 0 0 0 1 2 2 0 nan nan nan nan nan nan nan nan nan nan nan nan nan nan nan nan nan nan nan nan nan nan nan nan nan nan nan nan nan nan nan nan nan nan nan nan nan nan nan nan nan nan nan nan nan nan nan nan nan 0 0 0 0 nan nan nan nan nan nan nan
1 1 0 1 1 2 1 1 1 1 2 1 nan nan nan nan nan nan 0 nan nan 0 1 2 2 1 0 nan nan nan nan nan nan nan nan nan nan nan nan nan nan nan nan nan nan nan nan nan nan nan nan nan nan nan nan nan nan nan nan nan nan nan nan nan nan nan nan nan nan nan nan nan nan nan 0 0 0 0 0 0 0 nan nan nan nan nan
1 1 1 1 1 2 1 0 2 2 1 nan nan nan nan nan 0 0 0 nan nan 0 1 2 2 2 1 nan nan nan nan nan nan nan nan nan nan nan nan nan nan nan nan nan nan nan nan nan nan nan nan nan nan nan nan nan nan nan nan nan nan nan nan nan nan nan nan nan nan nan nan nan nan nan 0 0 0 0 0 0 0 nan nan nan nan nan
1 2 2 1 1 2 1 0 nan nan nan nan nan nan nan nan nan nan nan nan nan 0 1 1 1 0 0 1 nan nan nan nan nan nan nan nan nan nan nan nan nan nan nan nan nan nan nan nan nan nan nan nan nan nan nan nan nan nan nan nan nan nan nan 0 0 0 0 0 0 0 0 nan nan nan nan 0 0 0 0 0 0 nan nan 0 0 1
1 1 1 1 1 0 nan nan nan nan nan nan nan nan nan nan nan nan nan nan nan 0 1 1 1 0 nan nan nan nan nan nan nan nan nan nan nan nan nan nan nan nan nan nan nan nan nan nan nan nan nan nan nan nan nan nan nan nan nan nan nan nan 0 0 0 0 0 0 0 0 0 nan nan nan nan nan nan nan 0 nan nan nan 0 4 4 7
2 1 nan 0 0 nan nan nan nan nan nan nan nan nan nan nan nan nan 0 nan nan 0 0 0 0 0 nan nan nan nan nan nan nan nan nan nan nan nan nan nan nan nan nan nan nan nan nan nan nan nan nan nan nan nan nan nan nan nan nan nan nan nan 0 0 0 1 1 0 0 0 0 0 nan nan nan nan nan nan nan nan nan 0 2 3 3 5
3 1 nan 0 0 nan nan nan nan nan nan nan nan nan nan nan nan nan 0 0 0 nan nan nan nan nan nan nan nan nan nan nan nan nan nan nan nan nan nan nan nan nan nan nan nan nan nan nan nan nan nan nan nan nan nan nan nan nan nan nan nan nan 0 1 1 1 1 0 nan nan 0 0 nan nan nan nan nan nan 0 0 0 1 2 4 4 3
2 0 nan 0 0 nan nan nan nan nan nan nan nan nan nan nan 1 1 0 nan nan nan nan 0 0 nan nan nan nan nan nan nan nan nan nan nan nan nan nan nan nan nan nan nan nan nan nan nan nan nan nan nan nan nan nan nan nan nan nan nan nan nan 0 2 2 2 1 1 0 0 0 0 0 0 0 nan 0 0 1 1 1 2 3 3 3 3
2 0 0 nan nan nan nan nan nan nan nan nan nan nan nan 0 1 1 0 nan nan nan nan nan nan nan nan nan nan nan nan nan nan nan nan nan nan nan nan nan nan nan nan nan nan nan nan nan nan nan nan nan nan nan nan nan nan nan nan nan nan 0 1 2 2 3 2 1 1 1 1 1 1 1 1 0 1 1 1 2 2 2 3 3 3 3
0 0 0 nan nan nan nan nan nan nan nan nan nan nan 0 0 0 0 nan nan nan nan nan nan nan nan nan nan nan nan nan nan nan nan nan nan nan nan nan nan nan nan nan nan nan nan nan nan nan nan nan nan nan nan nan nan nan nan nan nan nan 0 1 3 3 3 2 2 1 1 1 2 2 2 2 2 2 2 3 3 3 3 3 3 3 3
nan nan nan nan nan nan nan nan nan nan nan nan nan nan nan nan nan nan nan nan nan nan nan nan nan nan nan nan nan nan nan nan nan nan nan nan nan nan nan nan nan nan nan nan nan nan nan nan nan nan nan nan nan nan nan nan nan nan nan nan nan 0 2 4 4 3 3 2 2 2 2 2 2 2 3 3 3 3 3 3 3 3 3 4 4 3
nan nan nan nan nan nan nan nan nan nan nan nan nan nan nan nan nan nan nan nan nan nan nan nan nan nan nan nan nan nan nan nan nan nan nan nan nan nan nan nan nan nan nan nan nan nan nan nan nan nan nan nan nan nan nan nan nan nan nan nan nan 1 3 4 4 3 2 2 2 2 1 1 2 2 2 3 4 4 4 5 5 4 4 4 4 4
nan nan nan nan nan nan nan nan nan nan nan nan nan nan nan nan nan nan nan nan nan nan nan nan nan nan nan nan nan nan nan nan nan nan nan nan nan nan nan nan nan nan nan nan nan nan nan nan nan nan nan nan nan nan nan nan nan nan nan 0 0 3 3 3 3 2 0 nan nan nan 0 0 1 1 2 3 4 4 5 5 5 5 5 4 4 4
nan nan nan nan nan nan nan nan nan nan nan nan nan nan nan nan nan nan nan nan nan nan nan nan nan nan nan nan nan nan nan nan nan nan nan nan nan nan nan nan nan nan nan nan nan nan nan nan nan nan nan nan nan nan nan nan nan nan nan 2 2 4 3 1 1 0 nan nan nan nan nan 0 1 1 2 3 4 4 4 5 5 5 6 5 5 5
nan nan nan nan nan nan nan nan nan nan 0 0 nan nan nan nan nan nan nan nan nan nan nan nan nan nan nan nan nan nan nan nan nan nan nan nan nan nan nan nan nan nan nan nan nan nan nan nan nan nan nan nan nan nan nan nan nan nan 0 3 3 3 1 0 0 nan nan nan nan nan nan nan 1 1 3 3 4 4 5 5 5 5 4 3 3 3
nan nan 0 0 0 0 nan 0 0 0 1 0 nan nan nan nan nan nan nan nan nan nan nan nan nan nan nan nan nan nan nan nan nan nan nan nan nan nan nan nan nan nan nan nan nan nan nan nan nan nan nan nan nan nan nan nan nan nan 0 2 2 1 0 nan nan nan nan nan nan nan nan nan nan nan 2 3 4 4 5 5 5 5 3 2 2 2
nan nan nan nan nan 0 0 0 0 0 1 0 nan nan nan nan nan nan nan nan nan nan nan nan nan nan nan nan nan nan nan nan nan nan nan nan nan nan nan nan nan nan nan nan nan nan nan nan nan nan nan nan nan nan nan nan nan nan nan 0 0 1 nan nan nan nan nan nan nan nan nan nan nan nan 0 3 5 5 6 7 7 7 4 2 2 3
nan nan nan nan nan nan nan 0 nan nan nan nan nan nan nan nan nan nan nan nan nan nan nan nan nan nan nan nan nan nan nan nan nan nan nan nan nan nan nan nan nan nan nan nan nan nan nan nan nan nan nan nan nan nan nan nan nan nan nan nan nan nan nan nan nan nan nan nan nan nan nan nan nan nan nan nan 1 1 5 6 6 7 5 4 4 3
nan nan nan nan nan nan nan nan nan nan nan nan nan nan nan nan nan nan nan nan nan nan nan nan nan nan nan nan nan nan nan nan nan nan nan nan nan nan nan nan nan nan nan nan nan nan nan nan nan nan nan nan nan nan nan nan nan nan nan nan nan nan nan nan nan nan nan nan nan nan nan nan nan nan nan nan nan nan 1 5 5 6 7 4 4 3
nan nan nan nan nan nan nan nan nan nan nan nan nan nan nan nan nan nan nan nan nan nan nan nan nan nan nan nan nan nan nan nan nan nan nan nan nan nan nan nan nan nan nan nan nan nan nan nan nan nan nan nan nan nan nan nan nan nan nan nan nan nan nan nan nan nan nan nan nan nan nan nan nan nan nan nan nan nan nan 1 1 5 6 5 5 3
nan nan nan nan nan nan nan nan nan nan nan nan nan nan nan nan nan nan nan nan nan nan nan nan nan nan nan nan nan nan nan nan nan nan nan nan nan nan nan nan nan nan nan nan nan nan nan nan nan nan nan nan nan nan nan nan nan nan nan nan nan nan nan nan nan nan nan nan nan nan nan nan nan nan nan nan nan nan nan 0 0 3 5 6 6 5
nan nan nan nan nan nan nan nan nan nan nan nan nan nan nan nan nan nan nan nan nan nan nan nan nan nan nan nan nan nan nan nan nan nan nan nan nan nan nan nan nan nan nan nan nan nan nan nan nan nan nan nan nan nan nan nan nan nan nan nan nan nan nan nan nan nan nan nan nan nan nan nan nan nan nan nan nan nan nan nan nan 0 2 5 5 5
nan nan nan nan nan nan nan nan nan nan nan nan nan nan nan nan nan nan nan nan nan nan nan nan nan nan nan nan nan nan nan nan nan nan nan nan nan nan nan nan nan nan nan nan nan nan nan nan nan nan nan nan nan nan nan nan nan nan nan nan nan nan nan nan nan nan nan nan nan nan nan nan nan nan nan nan nan nan nan nan nan nan 0 1 1 3
nan nan nan nan nan nan nan nan nan nan nan nan nan nan nan nan nan nan nan nan nan nan nan nan nan nan nan nan nan nan nan nan nan nan nan nan nan nan nan nan nan nan nan nan nan nan nan nan nan nan nan nan nan nan nan nan nan nan nan nan nan nan nan nan nan nan nan nan nan nan nan nan nan nan nan nan nan nan nan nan nan nan nan nan nan 0
nan nan nan nan nan nan nan nan nan nan nan nan nan nan nan nan nan nan nan nan nan nan nan nan nan nan nan nan nan nan nan nan nan nan nan nan nan nan nan nan nan nan nan nan nan nan nan nan nan nan nan nan nan nan nan nan nan nan nan nan nan nan nan nan nan nan nan nan nan nan nan nan nan nan nan nan nan nan nan nan nan nan nan nan nan nan
nan nan nan nan nan nan nan nan nan nan nan nan nan nan nan nan nan nan nan nan nan nan nan nan nan nan nan nan nan nan nan nan 0 0 nan nan nan nan nan nan nan nan nan nan nan nan nan nan nan nan nan nan nan nan nan nan nan nan nan nan nan nan nan nan nan nan nan nan nan nan nan nan nan nan nan nan nan nan nan nan nan nan nan nan nan nan
nan nan nan nan nan nan nan nan nan nan nan nan nan nan nan nan nan nan nan nan nan nan nan nan nan nan nan nan nan nan nan 0 0 0 nan nan nan nan nan nan nan nan nan nan nan nan nan nan nan nan nan nan nan nan nan nan nan nan nan nan nan nan nan nan nan nan nan nan nan nan nan nan nan nan nan nan nan nan nan nan nan nan nan nan nan nan
nan nan nan nan nan nan nan nan nan nan nan nan nan nan nan nan nan nan nan nan nan nan nan nan nan nan nan nan nan nan nan nan nan nan nan nan nan nan nan nan nan nan nan nan nan nan nan nan nan nan nan nan nan nan nan nan nan nan nan nan nan nan nan nan nan nan nan nan nan nan nan nan nan nan nan nan nan nan nan nan nan nan nan nan nan nan
nan nan nan nan nan nan nan nan nan nan nan nan nan nan nan nan nan nan nan nan nan nan nan nan nan nan nan nan nan nan nan nan nan nan nan nan nan nan nan nan nan nan nan nan nan nan nan nan nan nan nan nan nan nan nan nan nan nan nan nan nan nan nan nan nan nan nan nan nan nan nan nan nan nan nan nan nan nan nan nan nan nan nan nan nan nan
nan nan nan nan nan nan nan nan nan nan nan nan nan nan nan nan nan nan nan nan nan nan nan nan nan nan nan nan nan nan nan nan nan nan nan nan nan nan nan nan nan nan nan nan nan nan nan nan nan nan nan nan nan nan nan nan nan nan nan nan nan nan nan nan nan nan nan nan nan nan nan nan nan nan nan nan nan nan nan nan nan nan nan nan nan nan
nan nan nan nan nan nan nan nan nan nan nan nan nan nan nan nan nan nan nan nan nan nan nan nan nan nan nan nan nan nan nan nan nan nan nan nan nan nan nan nan nan nan nan nan nan nan nan nan nan nan nan nan nan nan nan nan nan nan nan nan nan nan nan nan nan nan nan nan nan nan nan nan nan nan nan nan nan nan nan nan nan nan nan nan nan nan
nan nan nan nan nan nan nan nan nan nan nan nan nan nan nan nan nan nan nan nan nan nan nan nan nan nan nan nan nan nan nan nan nan nan nan nan nan nan nan nan nan nan nan nan nan nan nan nan nan nan nan nan nan nan nan nan nan nan nan nan nan nan nan nan nan nan nan nan nan nan 0 0 nan nan nan nan nan nan nan nan nan nan nan nan nan nan
nan nan nan nan nan nan nan nan nan nan nan nan nan nan nan nan nan nan nan nan nan nan nan nan nan nan nan nan nan nan nan nan nan nan nan nan nan nan nan nan nan nan nan nan nan nan nan nan nan nan nan nan nan nan nan nan nan nan nan nan nan nan nan nan nan nan nan nan nan nan 1 nan nan nan nan nan nan nan nan nan nan nan nan nan nan nan
nan nan nan nan nan nan nan nan nan nan nan nan nan nan nan nan nan nan nan nan nan nan nan nan nan nan nan nan nan nan nan nan nan nan nan nan nan nan nan nan nan nan nan nan nan nan nan nan nan nan nan nan nan nan nan nan nan nan nan nan nan nan nan nan nan nan nan nan 1 1 2 0 nan nan nan nan nan nan nan nan nan nan nan nan nan nan
nan nan nan nan nan nan nan nan nan nan nan nan nan nan nan nan nan nan nan nan nan nan nan nan nan nan nan nan nan nan nan nan nan nan nan nan nan nan nan nan nan nan nan nan nan nan nan nan nan nan nan nan nan nan nan nan nan nan nan nan nan nan nan nan nan nan nan 0 nan nan nan nan nan nan nan nan nan nan nan nan nan nan nan nan nan nan
nan nan nan nan nan nan nan nan nan nan nan nan nan nan nan nan nan nan nan nan nan nan nan nan nan nan nan nan nan nan nan nan nan nan nan nan nan nan nan nan nan nan nan nan nan nan nan nan nan nan nan nan nan nan nan nan nan nan nan nan nan nan nan nan nan nan nan 0 nan nan 1 0 nan nan nan nan nan nan nan nan nan nan nan nan nan nan
nan nan nan nan nan nan nan nan nan nan nan nan nan nan nan nan nan nan nan nan nan nan nan nan nan nan nan nan nan nan nan nan nan nan nan nan nan nan nan nan nan nan nan nan nan nan nan nan nan nan nan nan nan nan nan nan nan nan nan nan nan nan nan nan nan nan nan nan 0 0 2 0 nan nan nan nan nan nan nan nan nan nan nan nan nan nan
CIN
-0 -0 -0 -0 -0 -0 -0 -0 -0 -0 -0 -0 -0 -0 -0 -0 -0 -0 -0 -0 -0 -0 -0 -0 -0 -0 -0 -0 -0 -0 -0 -0 -0 -0 -0 -0 -0 -0 -0 -0 -0 -0 nan nan nan nan -0 -0 -0 -0 -0 -0 -0 -0 -0 -0 -0 -0 -0 -0 -0 -0 -0 -0 -0 -0 -0 -0 -0 -0 nan nan nan nan nan nan nan nan nan nan nan nan nan nan nan nan
-0 -0 -0 -0 -0 -0 -0 -0 -0 -0 -0 -0 -0 -0 -0 -0 -0 -0 -0 -0 -0 -0 -0 -0 -0 -0 -0 -0 -0 -0 -0 -0 -0 -0 -0 -0 -0 -0 -0 -0 -0 -0 -0 nan nan -0 -0 -0 -0 -0 nan nan nan nan nan nan nan nan nan -0 -0 -0 -0 -0 -0 -0 -0 -0 nan nan nan nan nan nan nan nan nan nan nan nan nan nan nan nan nan nan
-0 -0 -0 -0 -0 -0 -0 -0 -0 -0 -0 -0 -0 -0 -0 -0 -0 -0 -0 -0 -0 -0 -0 -0 -0 -0 -0 -0 -0 -0 -0 -0 -0 -0 -0 -0 -0 -0 -0 -0 -0 -0 -0 -0 -0 -0 -0 -0 -0 nan nan nan nan nan nan nan nan nan nan nan nan nan nan nan nan nan nan nan nan nan nan nan nan nan nan nan nan nan nan nan nan nan nan nan nan nan
-0 -0 -0 -0 -0 -0 -0 -0 -0 -0 -0 -0 -0 -0 -0 -0 -0 -0 -0 -0 -0 nan -0 -0 -0 -0 -0 -0 -0 -0 -0 -0 -0 -0 -0 -0 -0 -0 -0 -0 -0 -0 -0 -0 -0 -0 -0 -0 -0 nan nan nan nan nan nan nan nan nan nan nan nan nan nan nan nan nan nan nan nan nan nan nan nan nan nan nan nan nan nan nan nan nan nan nan nan nan
-0 -0 -0 -0 -0 -0 -0 -0 -0 -0 -0 -0 -0 -0 -0 -0 -0 -0 -0 -0 -0 -0 -0 nan nan -0 -0 -0 -0 -0 -0 -0 -0 -0 -0 -0 -0 -0 -0 -0 -0 -0 -0 -0 -0 -0 -0 -0 -0 nan nan nan nan nan nan nan nan nan nan nan nan nan nan nan nan nan nan nan nan nan nan nan nan nan nan nan nan nan nan nan nan nan nan nan nan nan
-0 -0 -0 -0 -0 -0 -0 -0 -0 -0 -0 -0 -0 -0 -0 -0 -0 -0 -0 -0 -0 -0 -0 -0 -0 -0 -0 -0 -0 -0 -0 -0 -0 -0 -0 -0 -0 -0 -0 -0 -0 -0 -0 -0 -0 -0 -0 -0 -0 nan nan nan nan nan nan nan nan nan nan nan nan nan nan nan nan nan nan nan nan nan nan nan nan nan nan nan nan nan nan nan nan nan nan nan nan nan
-0 -0 -0 -0 -0 -0 -0 -0 -0 -0 -0 -0 -0 -0 -0 -0 -0 -0 -0 -0 -0 -0 -0 -0 -0 -0 nan -0 -0 -0 -0 -0 -0 -0 -0 -0 -0 -0 -0 -0 -0 -0 -0 -0 -0 -0 -0 -0 -0 nan nan nan nan nan nan nan nan nan nan nan nan nan nan nan nan nan nan nan nan nan nan nan nan nan nan nan nan nan nan nan nan nan nan nan nan nan
-0 -0 -0 -0 -0 -0 -0 -0 -0 -0 -0 -0 -0 -0 -0 -0 -0 -0 -0 -0 -0 -0 -0 -0 -0 -0 nan nan nan nan -0 -0 -0 -0 -0 -0 -0 -0 -0 -0 -0 -0 -0 -0 -0 -0 nan nan nan nan nan nan nan nan nan nan nan nan nan nan nan nan nan nan nan nan nan nan nan nan nan nan nan nan nan nan nan nan nan nan nan nan nan nan nan nan
-0 -0 -0 -0 -0 -0 -0 -0 -0 -0 -0 -0 -0 -0 -0 -0 -0 -0 -0 -0 -0 -0 -0 -0 -0 -0 -0 nan nan nan -0 -0 -0 -0 -0 -0 -0 -0 -0 -0 -0 -0 -0 -0 -0 nan nan nan nan nan nan nan nan nan nan nan nan nan nan nan nan nan nan nan nan nan nan nan nan nan nan nan nan nan nan nan nan nan nan nan nan nan nan nan nan nan
-0 -0 -0 -0 -0 -0 -0 -0 -0 -0 -0 -0 -0 -0 -0 -0 -0 -0 -0 -0 -0 -0 -0 -0 -0 -0 -0 nan nan nan -0 -0 -1 -1 -6 nan -0 -0 -0 -0 -0 -0 -0 nan nan nan nan nan nan nan nan nan nan nan nan nan nan nan nan nan nan nan nan nan nan nan nan nan nan nan nan nan nan nan nan nan nan nan nan nan nan nan nan nan nan nan
-0 -0 -0 -0 -0 -0 -0 -0 -0 -0 -0 -0 -0 -0 -0 -0 -0 -0 -0 -0 -0 -0 -0 -0 -0 -0 -0 -0 nan nan -0 -0 nan nan nan nan nan nan nan nan nan nan nan nan nan nan nan nan nan nan nan nan nan nan nan nan nan nan nan nan nan nan nan nan nan nan nan nan nan nan nan nan nan nan nan nan nan nan nan nan nan nan nan nan nan nan
-0 -0 -0 -0 -0 -0 -0 -0 -0 -0 -0 -0 -0 -0 -0 -0 -0 -0 -0 -0 -0 -0 -0 -0 -0 -0 -0 -0 -0 -0 -0 nan nan nan nan nan nan nan nan nan nan nan nan nan nan nan nan nan nan nan nan nan nan nan nan nan nan nan nan nan nan nan nan nan nan nan nan nan nan nan nan nan nan nan nan nan nan nan nan nan nan nan nan nan nan nan
-0 -0 -0 -0 -0 -0 -0 -0 -0 -0 -0 -0 -0 -0 -0 -0 -0 -0 -0 -0 -0 -0 -0 -0 -0 -0 nan nan nan nan nan nan nan nan nan nan nan nan nan nan nan nan nan nan nan nan nan nan nan nan nan nan nan nan nan nan nan nan nan nan nan nan nan nan nan nan nan nan nan nan nan nan nan nan nan nan nan nan nan nan nan nan nan nan nan nan
-0 -0 -0 -0 -0 -0 -0 -0 -0 -0 -0 -0 -0 -0 -0 -0 nan nan -0 -0 -0 -0 -0 -0 -0 nan nan nan nan nan nan nan nan nan nan nan nan nan nan nan nan nan nan nan nan nan nan nan nan nan nan nan nan nan nan nan nan nan nan nan nan nan nan nan nan nan nan nan nan nan nan nan nan nan nan -0 -0 -0 -0 nan nan nan nan nan nan nan
-0 -0 -0 -0 -0 -0 -0 -0 -0 -0 -0 -0 -0 -0 nan nan nan nan -0 -0 -0 -0 -0 -0 -0 -0 nan nan nan nan nan nan nan nan nan nan nan nan nan nan nan nan nan nan nan nan nan nan nan nan nan nan nan nan nan nan nan nan nan nan nan nan nan nan nan nan nan nan nan nan nan nan nan nan nan -0 -0 -0 -0 nan nan nan nan nan nan nan
-0 -0 -0 -0 -0 -0 -0 -0 -0 -0 -0 -0 nan nan nan nan nan nan -0 nan nan -0 -0 -0 -0 -0 -0 nan nan nan nan nan nan nan nan nan nan nan nan nan nan nan nan nan nan nan nan nan nan nan nan nan nan nan nan nan nan nan nan nan nan nan nan nan nan nan nan nan nan nan nan nan nan nan -0 -0 -0 -0 -0 -0 -0 nan nan nan nan nan
-0 -0 -0 -0 -0 -0 -0 -0 -0 -0 -0 nan nan nan nan nan -0 -0 -0 nan nan -0 -0 -0 -0 -0 -0 nan nan nan nan nan nan nan nan nan nan nan nan nan nan nan nan nan nan nan nan nan nan nan nan nan nan nan nan nan nan nan nan nan nan nan nan nan nan nan nan nan nan nan nan nan nan nan -0 -0 -0 -0 -0 -0 -0 nan nan nan nan nan
-0 -0 -0 -0 -0 -0 -0 -0 nan nan nan nan nan nan nan nan nan nan nan nan nan -0 -0 -0 -0 -0 -0 -0 nan nan nan nan nan nan nan nan nan nan nan nan nan nan nan nan nan nan nan nan nan nan nan nan nan nan nan nan nan nan nan nan nan nan nan -0 -0 -0 -0 -0 -0 -0 -0 nan nan nan nan -1 -0 -0 -0 -0 -0 nan nan -0 -0 -0
-0 -0 -0 -0 -0 -0 nan nan nan nan nan nan nan nan nan nan nan nan nan nan nan -0 -0 -0 -0 -0 nan nan nan nan nan nan nan nan nan nan nan nan nan nan nan nan nan nan nan nan nan nan nan nan nan nan nan nan nan nan nan nan nan nan nan nan -0 -0 -0 -0 -0 -0 -0 -0 -0 nan nan nan nan nan nan nan -0 nan nan nan -0 -0 -0 -0
-0 -0 nan -0 -0 nan nan nan nan nan nan nan nan nan nan nan nan nan -0 nan nan -0 -0 -0 -0 -0 nan nan nan nan nan nan nan nan nan nan nan nan nan nan nan nan nan nan nan nan nan nan nan nan nan nan nan nan nan nan nan nan nan nan nan nan -0 -0 -0 -0 -0 -0 -0 -0 -0 -0 nan nan nan nan nan nan nan nan nan -0 -0 -0 -0 -0
-0 -0 nan -0 -0 nan nan nan nan nan nan nan nan nan nan nan nan nan -0 -0 -0 nan nan nan nan nan nan nan nan nan nan nan nan nan nan nan nan nan nan nan nan nan nan nan nan nan nan nan nan nan nan nan nan nan nan nan nan nan nan nan nan nan -0 -0 -0 -0 -0 -0 nan nan -0 -0 nan nan nan nan nan nan -0 -0 -0 -0 -0 -0 -0 -0
-0 -0 nan -0 -0 nan nan nan nan nan nan nan nan nan nan nan -0 -0 -0 nan nan nan nan -0 -0 nan nan nan nan nan nan nan nan nan nan nan nan nan nan nan nan nan nan nan nan nan nan nan nan nan nan nan nan nan nan nan nan nan nan nan nan nan -0 -0 -0 -0 -0 -0 -0 -0 -0 -0 -0 -0 -0 nan -0 -0 -0 -0 -0 -0 -0 -0 -0 -0
-0 -0 -0 nan nan nan nan nan nan nan nan nan nan nan nan -0 -0 -0 -0 nan nan nan nan nan nan nan nan nan nan nan nan nan nan nan nan nan nan nan nan nan nan nan nan nan nan nan nan nan nan nan nan nan nan nan nan nan nan nan nan nan nan -0 -0 -0 -0 -0 -0 -0 -0 -0 -0 -0 -0 -0 -0 -0 -0 -0 -0 -0 -0 -0 -0 -0 -0 -0
-0 -0 -0 nan nan nan nan nan nan nan nan nan nan nan -1 -0 -0 -0 nan nan nan nan nan nan nan nan nan nan nan nan nan nan nan nan nan nan nan nan nan nan nan nan nan nan nan nan nan nan nan nan nan nan nan nan nan nan nan nan nan nan nan -0 -0 -0 -0 -0 -0 -0 -0 -0 -0 -0 -0 -0 -0 -0 -0 -0 -0 -0 -0 -0 -0 -0 -0 -0
nan nan nan nan nan nan nan nan nan nan nan nan nan nan nan nan nan nan nan nan nan nan nan nan nan nan nan nan nan nan nan nan nan nan nan nan nan nan nan nan nan nan nan nan nan nan nan nan nan nan nan nan nan nan nan nan nan nan nan nan nan -0 -0 -0 -0 -0 -0 -0 -0 -0 -0 -0 -0 -0 -0 -0 -0 -0 -0 -0 -0 -0 -0 -0 -0 -0
nan nan nan nan nan nan nan nan nan nan nan nan nan nan nan nan nan nan nan nan nan nan nan nan nan nan nan nan nan nan nan nan nan nan nan nan nan nan nan nan nan nan nan nan nan nan nan nan nan nan nan nan nan nan nan nan nan nan nan nan nan -0 -0 -0 -0 -0 -0 -0 -0 -0 -0 -0 -0 -0 -0 -0 -0 -0 -0 -0 -0 -0 -0 -0 -0 -0
nan nan nan nan nan nan nan nan nan nan nan nan nan nan nan nan nan nan nan nan nan nan nan nan nan nan nan nan nan nan nan nan nan nan nan nan nan nan nan nan nan nan nan nan nan nan nan nan nan nan nan nan nan nan nan nan nan nan nan -0 -0 -0 -0 -0 -0 -0 -0 nan nan nan -0 -0 -0 -0 -0 -0 -0 -0 -0 -0 -0 -0 -0 -0 -0 -0
nan nan nan nan nan nan nan nan nan nan nan nan nan nan nan nan nan nan nan nan nan nan nan nan nan nan nan nan nan nan nan nan nan nan nan nan nan nan nan nan nan nan nan nan nan nan nan nan nan nan nan nan nan nan nan nan nan nan nan -0 -0 -0 -0 -0 -0 -0 nan nan nan nan nan -0 -0 -0 -0 -0 -0 -0 -0 -0 -0 -0 -0 -0 -0 -0
nan nan nan nan nan nan nan nan nan nan -0 -0 nan nan nan nan nan nan nan nan nan nan nan nan nan nan nan nan nan nan nan nan nan nan nan nan nan nan nan nan nan nan nan nan nan nan nan nan nan nan nan nan nan nan nan nan nan nan -1 -0 -0 -0 -0 -0 -0 nan nan nan nan nan nan nan -0 -0 -0 -0 -0 -0 -0 -0 -0 -0 -0 -0 -0 -0
nan nan -0 -0 -0 -0 nan -0 -0 -0 -0 -0 nan nan nan nan nan nan nan nan nan nan nan nan nan nan nan nan nan nan nan nan nan nan nan nan nan nan nan nan nan nan nan nan nan nan nan nan nan nan nan nan nan nan nan nan nan nan -0 -0 -0 -0 -0 nan nan nan nan nan nan nan nan nan nan nan -0 -0 -0 -0 -0 -0 -0 -0 -0 -0 -0 -0
nan nan nan nan nan -0 -0 -0 -0 -0 -0 -0 nan nan nan nan nan nan nan nan nan nan nan nan nan nan nan nan nan nan nan nan nan nan nan nan nan nan nan nan nan nan nan nan nan nan nan nan nan nan nan nan nan nan nan nan nan nan nan -0 -0 -0 nan nan nan nan nan nan nan nan nan nan nan nan -0 -0 -0 -0 -0 -0 -0 -0 -0 -0 -0 -0
nan nan nan nan nan nan nan -0 nan nan nan nan nan nan nan nan nan nan nan nan nan nan nan nan nan nan nan nan nan nan nan nan nan nan nan nan nan nan nan nan nan nan nan nan nan nan nan nan nan nan nan nan nan nan nan nan nan nan nan nan nan nan nan nan nan nan nan nan nan nan nan nan nan nan nan nan -0 -0 -0 -0 -0 -0 -0 -0 -0 -0
nan nan nan nan nan nan nan nan nan nan nan nan nan nan nan nan nan nan nan nan nan nan nan nan nan nan nan nan nan nan nan nan nan nan nan nan nan nan nan nan nan nan nan nan nan nan nan nan nan nan nan nan nan nan nan nan nan nan nan nan nan nan nan nan nan nan nan nan nan nan nan nan nan nan nan nan nan nan -0 -0 -0 -0 -0 -0 -0 -0
nan nan nan nan nan nan nan nan nan nan nan nan nan nan nan nan nan nan nan nan nan nan nan nan nan nan nan nan nan nan nan nan nan nan nan nan nan nan nan nan nan nan nan nan nan nan nan nan nan nan nan nan nan nan nan nan nan nan nan nan nan nan nan nan nan nan nan nan nan nan nan nan nan nan nan nan nan nan nan -0 -0 -0 -0 -0 -0 -0
nan nan nan nan nan nan nan nan nan nan nan nan nan nan nan nan nan nan nan nan nan nan nan nan nan nan nan nan nan nan nan nan nan nan nan nan nan nan nan nan nan nan nan nan nan nan nan nan nan nan nan nan nan nan nan nan nan nan nan nan nan nan nan nan nan nan nan nan nan nan nan nan nan nan nan nan nan nan nan -0 -0 -0 -0 -0 -0 -0
nan nan nan nan nan nan nan nan nan nan nan nan nan nan nan nan nan nan nan nan nan nan nan nan nan nan nan nan nan nan nan nan nan nan nan nan nan nan nan nan nan nan nan nan nan nan nan nan nan nan nan nan nan nan nan nan nan nan nan nan nan nan nan nan nan nan nan nan nan nan nan nan nan nan nan nan nan nan nan nan nan -0 -0 -0 -0 -0
nan nan nan nan nan nan nan nan nan nan nan nan nan nan nan nan nan nan nan nan nan nan nan nan nan nan nan nan nan nan nan nan nan nan nan nan nan nan nan nan nan nan nan nan nan nan nan nan nan nan nan nan nan nan nan nan nan nan nan nan nan nan nan nan nan nan nan nan nan nan nan nan nan nan nan nan nan nan nan nan nan nan -0 -0 -0 -0
nan nan nan nan nan nan nan nan nan nan nan nan nan nan nan nan nan nan nan nan nan nan nan nan nan nan nan nan nan nan nan nan nan nan nan nan nan nan nan nan nan nan nan nan nan nan nan nan nan nan nan nan nan nan nan nan nan nan nan nan nan nan nan nan nan nan nan nan nan nan nan nan nan nan nan nan nan nan nan nan nan nan nan nan nan -0
nan nan nan nan nan nan nan nan nan nan nan nan nan nan nan nan nan nan nan nan nan nan nan nan nan nan nan nan nan nan nan nan nan nan nan nan nan nan nan nan nan nan nan nan nan nan nan nan nan nan nan nan nan nan nan nan nan nan nan nan nan nan nan nan nan nan nan nan nan nan nan nan nan nan nan nan nan nan nan nan nan nan nan nan nan nan
nan nan nan nan nan nan nan nan nan nan nan nan nan nan nan nan nan nan nan nan nan nan nan nan nan nan nan nan nan nan nan nan -0 -0 nan nan nan nan nan nan nan nan nan nan nan nan nan nan nan nan nan nan nan nan nan nan nan nan nan nan nan nan nan nan nan nan nan nan nan nan nan nan nan nan nan nan nan nan nan nan nan nan nan nan nan nan
nan nan nan nan nan nan nan nan nan nan nan nan nan nan nan nan nan nan nan nan nan nan nan nan nan nan nan nan nan nan nan -0 -0 -0 nan nan nan nan nan nan nan nan nan nan nan nan nan nan nan nan nan nan nan nan nan nan nan nan nan nan nan nan nan nan nan nan nan nan nan nan nan nan nan nan nan nan nan nan nan nan nan nan nan nan nan nan
nan nan nan nan nan nan nan nan nan nan nan nan nan nan nan nan nan nan nan nan nan nan nan nan nan nan nan nan nan nan nan nan nan nan nan nan nan nan nan nan nan nan nan nan nan nan nan nan nan nan nan nan nan nan nan nan nan nan nan nan nan nan nan nan nan nan nan nan nan nan nan nan nan nan nan nan nan nan nan nan nan nan nan nan nan nan
nan nan nan nan nan nan nan nan nan nan nan nan nan nan nan nan nan nan nan nan nan nan nan nan nan nan nan nan nan nan nan nan nan nan nan nan nan nan nan nan nan nan nan nan nan nan nan nan nan nan nan nan nan nan nan nan nan nan nan nan nan nan nan nan nan nan nan nan nan nan nan nan nan nan nan nan nan nan nan nan nan nan nan nan nan nan
nan nan nan nan nan nan nan nan nan nan nan nan nan nan nan nan nan nan nan nan nan nan nan nan nan nan nan nan nan nan nan nan nan nan nan nan nan nan nan nan nan nan nan nan nan nan nan nan nan nan nan nan nan nan nan nan nan nan nan nan nan nan nan nan nan nan nan nan nan nan nan nan nan nan nan nan nan nan nan nan nan nan nan nan nan nan
nan nan nan nan nan nan nan nan nan nan nan nan nan nan nan nan nan nan nan nan nan nan nan nan nan nan nan nan nan nan nan nan nan nan nan nan nan nan nan nan nan nan nan nan nan nan nan nan nan nan nan nan nan nan nan nan nan nan nan nan nan nan nan nan nan nan nan nan nan nan nan nan nan nan nan nan nan nan nan nan nan nan nan nan nan nan
nan nan nan nan nan nan nan nan nan nan nan nan nan nan nan nan nan nan nan nan nan nan nan nan nan nan nan nan nan nan nan nan nan nan nan nan nan nan nan nan nan nan nan nan nan nan nan nan nan nan nan nan nan nan nan nan nan nan nan nan nan nan nan nan nan nan nan nan nan nan -0 -0 nan nan nan nan nan nan nan nan nan nan nan nan nan nan
nan nan nan nan nan nan nan nan nan nan nan nan nan nan nan nan nan nan nan nan nan nan nan nan nan nan nan nan nan nan nan nan nan nan nan nan nan nan nan nan nan nan nan nan nan nan nan nan nan nan nan nan nan nan nan nan nan nan nan nan nan nan nan nan nan nan nan nan nan nan -0 nan nan nan nan nan nan nan nan nan nan nan nan nan nan nan
nan nan nan nan nan nan nan nan nan nan nan nan nan nan nan nan nan nan nan nan nan nan nan nan nan nan nan nan nan nan nan nan nan nan nan nan nan nan nan nan nan nan nan nan nan nan nan nan nan nan nan nan nan nan nan nan nan nan nan nan nan nan nan nan nan nan nan nan -0 -0 -0 -0 nan nan nan nan nan nan nan nan nan nan nan nan nan nan
nan nan nan nan nan nan nan nan nan nan nan nan nan nan nan nan nan nan nan nan nan nan nan nan nan nan nan nan nan nan nan nan nan nan nan nan nan nan nan nan nan nan nan nan nan nan nan nan nan nan nan nan nan nan nan nan nan nan nan nan nan nan nan nan nan nan nan -0 nan nan nan nan nan nan nan nan nan nan nan nan nan nan nan nan nan nan
nan nan nan nan nan nan nan nan nan nan nan nan nan nan nan nan nan nan nan nan nan nan nan nan nan nan nan nan nan nan nan nan nan nan nan nan nan nan nan nan nan nan nan nan nan nan nan nan nan nan nan nan nan nan nan nan nan nan nan nan nan nan nan nan nan nan nan -0 nan nan -0 -0 nan nan nan nan nan nan nan nan nan nan nan nan nan nan
nan nan nan nan nan nan nan nan nan nan nan nan nan nan nan nan nan nan nan nan nan nan nan nan nan nan nan nan nan nan nan nan nan nan nan nan nan nan nan nan nan nan nan nan nan nan nan nan nan nan nan nan nan nan nan nan nan nan nan nan nan nan nan nan nan nan nan nan -0 -0 -0 -0 nan nan nan nan nan nan nan nan nan nan nan nan nan nan
Wind_Speed
1 2 2 4 4 4 5 7 7 6 5 4 4 4 3 3 3 3 4 3 3 3 3 3 3 5 7 9 11 11 12 11 11 10 9 9 8 8 7 7 7 7 6 6 6 5 5 6 6 6 7 7 8 8 8 8 8 8 8 8 8 8 8 8 8 8 8 8 8 7 7 6 6 5 5 5 4 4 4 4 4 4 4 4 3 3
2 2 2 4 5 4 4 7 7 6 6 5 5 4 4 4 3 3 3 3 3 2 2 2 3 4 6 7 9 10 11 11 10 10 9 8 8 8 7 7 7 7 7 6 6 6 6 7 7 7 8 8 8 8 9 9 9 9 9 9 9 9 9 9 8 8 8 8 7 7 7 6 6 5 5 4 4 4 4 4 4 4 4 4 4 4
3 2 3 4 5 5 4 6 6 6 6 6 5 5 5 5 4 3 2 2 2 2 2 2 2 3 4 5 7 9 9 9 9 9 9 8 8 8 8 7 7 7 7 7 7 7 7 7 7 7 7 8 8 8 8 8 8 8 8 8 9 9 9 9 8 8 8 8 7 7 6 6 5 5 4 4 4 4 4 4 4 4 4 4 4 4
3 3 3 4 4 4 3 4 5 5 4 5 5 5 6 5 4 3 2 2 2 2 2 2 2 2 3 3 5 7 8 8 8 8 8 8 8 8 8 8 8 8 8 8 8 8 8 7 7 7 7 7 7 7 7 7 7 7 8 8 8 8 8 8 8 8 7 7 6 6 5 5 5 4 4 4 4 4 3 3 3 3 3 4 4 4
4 4 4 3 3 3 2 3 4 4 4 4 4 4 4 3 3 3 2 2 2 2 2 2 2 2 2 2 3 4 6 7 8 8 8 8 8 8 8 8 8 8 8 8 8 8 8 7 7 7 6 6 6 6 6 6 6 7 7 7 7 7 7 7 7 7 6 6 6 5 5 4 4 4 4 4 4 4 4 3 3 3 3 3 4 4
4 3 3 3 2 2 2 2 3 4 4 4 4 3 3 3 3 2 2 2 2 2 2 2 2 2 2 2 2 3 5 7 8 8 8 8 8 9 9 9 9 9 9 9 8 8 8 7 7 6 6 6 6 6 6 6 6 6 6 6 6 6 6 6 6 5 5 5 4 4 4 4 4 4 4 4 4 4 4 4 3 3 3 4 4 4
3 2 2 2 2 2 2 2 3 3 3 3 3 3 3 3 3 2 2 2 2 2 2 1 1 2 1 2 1 2 5 6 7 8 8 9 9 9 9 9 9 9 9 9 8 8 7 7 6 6 6 5 5 5 6 6 6 6 6 6 6 5 5 5 4 4 4 3 3 3 3 3 3 3 3 3 3 4 4 4 4 4 4 4 4 4
3 2 2 2 2 2 2 2 2 3 3 3 3 3 3 2 2 2 2 2 2 2 2 2 1 1 1 1 1 2 4 6 7 7 8 8 9 9 9 9 9 9 9 9 8 7 7 6 6 5 5 5 5 5 6 6 6 6 6 5 5 4 4 3 3 2 2 2 2 2 2 2 2 2 2 3 3 3 3 4 4 4 4 4 4 4
4 3 3 3 3 2 2 2 1 1 2 3 3 4 4 3 3 2 2 2 2 1 1 2 2 1 1 1 1 1 3 5 5 6 7 7 8 9 9 10 10 9 9 8 7 7 6 5 5 5 5 5 5 5 6 6 6 6 5 5 4 3 2 2 1 1 0 1 1 1 1 2 2 2 2 2 2 2 3 3 3 4 4 4 4 3
4 4 3 3 3 3 3 2 2 1 0 1 2 3 4 4 4 4 3 2 1 1 1 2 2 3 2 1 1 2 3 4 4 3 4 4 6 7 8 8 8 8 8 7 7 6 5 5 4 4 5 5 5 5 6 6 5 5 4 4 3 2 1 1 1 1 1 1 1 1 1 1 1 2 2 2 2 2 2 2 3 3 3 3 3 3
3 4 3 3 2 2 2 2 2 2 1 1 1 2 2 4 4 5 5 4 3 2 1 1 2 2 3 3 3 3 3 4 4 4 5 6 6 6 6 6 6 7 7 6 6 5 4 3 4 4 4 5 5 5 5 5 5 4 3 2 1 1 1 2 2 2 2 1 1 1 1 1 1 1 1 1 1 1 1 2 2 2 3 3 3 3
3 3 3 3 2 2 2 2 2 2 2 2 2 2 3 4 4 5 5 5 5 4 3 2 1 1 2 3 3 3 4 4 4 4 4 4 5 5 5 5 5 5 5 5 5 4 3 2 2 3 4 5 5 5 5 4 4 3 2 1 1 2 2 3 3 3 2 2 1 1 1 1 1 2 2 1 1 1 1 1 1 2 2 3 3 3
3 2 2 3 3 3 2 3 3 3 3 4 5 5 5 5 4 4 4 5 5 5 5 3 2 1 1 1 2 3 4 4 4 4 4 3 3 3 3 3 4 4 4 4 4 4 3 2 2 2 3 4 5 5 5 4 3 2 2 2 2 3 3 3 3 3 3 2 2 1 1 1 1 2 2 2 1 1 1 1 1 1 2 2 3 3
3 3 3 3 3 4 3 4 5 5 5 6 6 5 4 4 4 3 3 4 4 4 5 4 3 2 1 1 1 2 3 4 4 4 4 3 2 2 2 3 3 3 3 3 3 3 3 2 2 2 2 3 4 5 5 4 3 2 2 3 3 4 4 4 4 3 3 2 2 1 1 1 1 2 2 2 1 1 1 0 0 1 1 2 2 3
4 4 4 4 4 4 5 5 6 6 6 6 4 3 3 4 4 4 3 4 4 4 4 4 4 3 3 2 1 1 2 3 4 4 4 3 2 1 1 2 2 3 2 3 3 3 3 2 2 2 3 3 4 4 4 4 3 3 3 4 4 4 4 4 4 3 3 2 2 2 1 1 2 2 2 1 1 1 1 1 1 1 1 2 2 3
4 4 5 5 5 5 5 6 6 6 6 5 4 4 4 5 5 5 4 5 5 4 4 4 4 3 3 3 2 2 2 3 4 4 5 4 3 1 1 2 3 3 3 3 2 2 2 2 2 2 3 3 3 3 3 4 4 4 4 4 4 4 4 4 4 4 3 3 2 2 2 2 2 2 1 1 1 1 1 1 1 1 1 2 2 2
4 4 5 5 5 5 5 5 5 5 5 4 4 4 5 5 5 5 4 4 4 4 4 4 4 4 3 3 3 3 3 4 4 4 4 4 3 2 1 1 2 3 3 3 2 2 2 2 2 2 2 3 3 4 4 4 4 4 5 5 5 5 4 4 4 4 3 3 3 2 2 2 2 1 1 1 1 1 1 1 1 1 1 1 2 2
4 4 4 4 4 4 4 5 4 3 4 4 4 4 4 4 4 4 4 4 5 5 5 5 4 4 3 4 4 5 5 4 4 4 4 4 3 3 1 1 2 2 3 3 2 2 2 2 2 2 2 3 4 4 5 5 5 5 5 5 5 5 5 5 4 4 4 3 3 3 2 2 2 1 1 1 1 1 1 1 1 1 1 1 2 2
4 4 4 4 3 3 4 4 4 4 4 4 4 4 3 3 3 3 4 4 5 6 6 5 4 4 3 3 4 5 5 4 4 4 4 4 3 3 2 2 2 2 3 3 2 2 2 1 1 2 2 3 4 4 5 5 5 5 5 5 5 5 5 5 5 5 4 4 3 3 3 2 2 2 1 1 1 1 1 1 1 1 1 2 2 2
4 4 4 4 3 3 4 4 5 5 5 5 5 5 4 4 4 4 5 5 5 5 4 4 4 4 3 3 4 4 4 4 4 4 4 3 3 3 2 2 3 3 3 3 2 2 2 1 2 2 2 3 4 5 5 5 5 5 5 5 5 5 5 5 5 5 4 4 3 3 3 3 2 2 2 1 1 1 1 1 1 1 2 2 2 2
4 5 5 4 4 4 4 4 5 6 6 6 6 5 5 5 5 5 5 5 4 4 4 4 4 3 2 3 4 4 4 5 5 4 3 3 2 3 2 2 3 3 3 3 2 2 2 2 2 2 3 3 4 5 5 5 5 5 5 5 5 5 6 6 5 5 5 4 4 3 3 3 2 2 2 2 2 2 2 2 2 2 2 2 2 2
4 4 5 5 4 4 4 5 6 7 7 7 6 6 5 6 6 6 5 5 5 4 4 2 2 2 3 3 3 3 3 4 4 4 3 3 3 3 3 2 2 3 3 2 2 2 2 2 2 2 3 3 4 4 5 5 5 5 5 5 5 6 6 6 6 5 5 5 4 4 3 3 3 2 2 2 2 2 2 2 2 3 3 3 3 3
4 4 4 4 3 3 2 3 5 6 7 7 7 6 5 6 6 6 6 5 5 4 3 3 3 3 3 3 3 2 1 1 2 3 3 3 3 3 3 2 2 3 3 2 2 2 2 2 2 2 2 2 2 3 4 4 5 5 5 6 6 6 6 6 6 6 5 5 4 4 4 3 3 3 3 3 3 3 3 3 3 3 3 4 4 4
4 3 2 2 2 1 1 2 4 5 6 6 5 4 3 3 3 4 4 4 4 4 4 4 4 3 3 3 3 2 2 1 1 2 3 3 2 2 3 2 3 3 3 2 2 2 2 2 2 2 2 1 1 2 3 4 5 5 6 6 6 6 7 7 6 6 6 5 5 4 4 4 4 4 3 3 3 3 3 3 3 3 4 4 4 4
2 2 1 0 1 2 2 3 4 5 6 5 4 3 3 3 4 4 4 4 4 5 5 4 4 4 3 3 3 3 2 1 1 2 2 2 2 2 2 2 2 3 2 2 2 2 2 2 2 2 2 1 1 1 2 3 5 6 7 7 7 7 7 7 7 6 5 5 4 4 4 4 4 4 4 4 4 4 4 4 4 4 4 4 4 4
1 1 1 1 2 4 4 5 7 8 8 7 6 5 5 5 5 5 4 4 5 5 5 5 5 4 3 3 3 3 3 2 1 1 1 1 2 2 2 2 1 2 2 2 2 2 2 2 3 2 2 2 1 1 2 3 5 6 7 8 8 7 7 7 6 5 5 4 3 3 3 4 4 4 4 4 5 5 4 4 4 4 4 4 5 5
0 1 2 3 5 6 7 7 9 10 11 10 9 8 6 6 5 5 5 5 5 6 6 6 5 4 4 3 3 3 3 3 2 1 1 1 1 2 2 2 1 1 2 2 2 2 2 2 2 2 2 1 1 1 2 3 4 6 7 8 8 7 7 6 5 4 3 2 2 2 3 3 4 4 4 5 5 5 5 5 5 4 5 5 4 4
3 3 4 5 6 7 8 9 10 11 12 12 12 11 9 7 6 6 6 6 6 6 6 6 5 5 4 4 3 3 3 3 3 2 1 1 1 2 2 2 2 1 2 2 2 2 1 1 1 1 1 1 1 1 1 2 3 4 5 6 7 7 6 5 5 4 3 1 1 1 2 3 3 4 4 5 5 5 5 5 5 5 5 5 4 4
5 5 6 6 7 8 8 8 9 10 12 12 13 11 8 6 5 5 5 6 6 6 6 6 5 4 4 3 3 3 3 3 3 3 2 2 1 2 2 2 2 2 2 2 2 2 2 1 1 1 1 1 1 1 0 1 1 1 2 5 6 6 5 5 4 3 2 1 0 1 2 3 3 4 4 5 5 5 5 5 5 5 4 4 4 3
5 6 6 7 7 7 7 7 8 9 11 12 11 9 6 4 4 4 4 5 6 6 6 5 4 4 3 3 3 2 3 3 4 4 4 3 2 2 2 2 2 2 2 2 2 2 2 2 2 2 2 2 2 1 1 1 1 1 2 4 5 5 5 4 3 3 2 1 1 1 2 3 4 4 5 5 5 5 5 5 5 5 4 4 4 3
4 5 5 5 6 6 6 6 6 7 9 9 8 6 3 2 2 2 4 4 5 5 5 4 4 4 4 3 3 3 2 3 4 5 4 3 2 2 3 3 2 2 1 1 2 2 2 2 2 2 2 2 2 2 2 2 1 2 2 3 4 4 4 4 3 2 2 1 1 1 2 3 4 5 5 5 6 6 6 6 6 5 4 4 4 3
3 3 4 4 4 4 4 5 5 5 6 6 4 3 2 1 2 2 3 3 3 3 4 4 4 4 4 3 3 2 2 3 5 6 5 3 2 2 2 3 3 2 1 1 1 1 1 2 2 2 3 3 3 3 2 2 1 1 2 2 3 3 4 3 3 2 2 1 1 1 2 3 4 5 6 6 6 7 7 7 6 6 4 4 4 3
3 3 3 3 3 3 3 4 4 4 4 3 3 2 2 2 3 3 2 2 2 2 3 4 4 4 3 3 2 1 2 3 4 6 6 3 2 2 2 2 3 2 2 1 1 1 0 1 2 2 3 3 3 3 3 2 2 2 1 2 2 3 3 3 3 2 2 2 2 2 3 3 4 5 6 7 7 8 8 8 8 7 6 4 4 4
3 4 4 4 3 3 3 4 4 4 4 3 3 3 3 3 3 3 3 2 2 2 2 3 4 4 4 3 2 2 2 3 5 6 6 4 2 2 3 3 3 3 3 2 1 0 0 1 1 2 2 2 3 3 3 3 2 2 1 2 2 2 2 2 2 2 2 2 2 3 3 3 4 5 6 6 7 8 8 8 9 9 8 6 5 4
4 4 4 4 4 4 4 4 4 4 4 3 3 3 3 3 3 3 3 3 2 2 2 2 2 3 3 3 3 2 3 4 5 6 6 4 3 2 3 3 3 3 3 3 2 2 1 1 2 2 2 2 2 3 3 3 2 2 2 2 2 2 2 2 2 2 2 2 2 3 3 3 3 4 5 5 6 7 8 8 9 9 9 8 7 5
4 4 4 4 4 4 5 5 5 4 4 3 3 3 3 3 3 3 3 3 3 3 3 3 2 1 1 1 2 2 3 4 6 6 6 4 3 3 3 3 3 3 3 3 3 2 2 2 2 2 2 2 2 3 3 3 3 2 2 2 2 2 2 2 2 2 2 2 3 3 2 2 3 3 3 4 5 6 6 7 7 8 8 8 8 7
5 4 4 5 5 5 5 5 5 5 4 4 3 3 3 3 3 4 3 3 3 3 3 3 3 3 3 2 2 2 4 5 6 6 6 4 3 2 2 2 3 3 3 3 3 2 2 2 2 2 2 2 2 2 3 3 3 3 3 3 3 3 3 2 2 2 2 3 3 3 2 2 2 3 3 4 4 5 5 6 6 7 7 7 8 8
5 5 5 4 4 5 5 5 5 5 4 4 4 3 3 4 4 4 4 3 3 3 3 3 3 4 5 5 4 4 4 6 7 7 6 4 3 2 2 2 3 3 2 2 2 2 2 3 3 3 2 2 2 2 2 3 3 4 4 3 3 3 3 3 3 2 3 3 3 3 3 3 3 3 3 3 3 4 4 5 5 6 6 6 7 8
5 5 5 5 5 5 5 5 4 4 4 4 4 4 4 4 4 4 4 3 3 3 4 4 4 4 5 5 5 5 5 5 6 6 5 4 3 2 2 3 3 3 2 2 2 2 2 2 3 3 2 2 2 2 2 2 3 3 3 3 3 3 4 3 3 3 3 3 3 3 3 3 3 3 3 3 3 4 4 4 4 5 5 5 5 6
5 5 5 5 5 5 4 4 4 4 4 4 4 4 4 4 4 4 4 3 3 3 4 4 4 4 4 4 5 5 5 4 4 4 4 3 2 2 2 2 3 3 2 2 2 2 2 2 2 2 2 2 2 2 2 2 3 3 3 2 2 3 4 4 3 3 3 3 3 3 3 3 3 3 4 4 4 4 4 3 3 3 4 4 4 4
6 5 5 5 4 4 3 3 4 4 4 4 4 4 3 3 3 3 3 3 3 3 3 3 3 3 3 4 4 4 4 3 3 3 3 2 1 1 1 2 2 3 3 2 2 2 3 3 2 2 2 2 2 2 2 3 3 3 3 3 2 2 2 3 3 3 3 3 3 3 4 4 4 4 4 4 4 4 3 3 3 3 3 3 3 3
6 5 5 4 4 3 3 4 4 4 4 4 4 4 4 4 4 4 4 4 3 3 3 3 3 3 3 3 3 3 3 3 3 3 3 2 1 1 1 2 2 3 3 3 3 3 3 3 2 2 2 2 2 2 2 2 3 3 4 3 3 2 2 3 3 3 2 3 3 3 4 4 4 4 4 4 4 3 3 3 4 4 4 4 4 4
5 4 4 4 4 4 4 4 4 4 4 4 4 4 4 4 4 4 5 4 4 4 4 4 4 4 4 3 3 2 2 2 2 2 2 2 1 1 1 2 2 3 3 3 3 3 3 3 3 2 2 2 2 2 2 2 3 3 4 3 3 2 2 2 2 3 3 3 3 3 3 3 3 3 3 3 3 3 3 4 5 5 5 4 4 4
4 4 4 4 4 4 4 4 4 4 4 4 4 4 4 4 4 5 4 4 4 4 4 4 4 4 4 4 4 4 3 2 2 2 2 2 1 1 1 2 2 3 3 3 3 3 3 3 3 3 2 2 2 2 2 2 3 3 3 3 4 3 3 2 2 3 3 3 3 3 3 3 2 2 2 3 3 4 4 4 5 5 5 5 5 5
4 4 4 4 4 4 4 4 4 4 4 4 4 4 4 4 4 4 4 4 4 5 4 4 4 4 4 4 4 4 4 4 3 2 2 2 2 2 2 2 2 3 3 3 3 3 3 3 3 3 2 2 2 3 3 3 3 3 3 3 4 4 4 3 2 2 3 3 3 3 4 3 2 2 3 3 4 4 4 5 5 5 5 5 5 5
4 4 4 4 4 4 5 5 5 4 4 4 4 4 4 4 4 4 4 4 5 5 5 5 4 4 4 4 4 4 4 4 4 4 3 3 3 3 2 2 2 2 3 3 3 3 3 2 2 2 3 3 3 4 4 4 4 3 3 3 3 3 3 3 3 3 3 3 3 3 3 2 2 2 3 4 4 4 4 4 5 5 5 5 5 5
5 5 5 5 5 5 5 5 5 5 5 5 4 4 4 4 4 4 4 4 4 4 4 4 4 4 4 4 4 4 4 4 4 4 4 4 4 3 3 2 2 2 2 2 2 2 2 2 2 2 2 3 3 4 4 4 4 4 3 3 3 3 3 3 3 3 3 3 3 2 2 2 2 3 3 4 4 4 4 4 4 5 5 5 5 5
5 5 5 5 5 5 5 5 5 5 5 5 4 4 4 4 4 4 4 4 4 4 4 4 4 4 4 4 4 4 4 4 4 4 4 4 4 4 3 3 2 2 1 1 1 2 2 2 2 3 3 3 3 3 3 4 4 4 3 3 3 3 3 3 3 3 3 3 2 2 2 2 2 3 3 3 3 3 3 4 4 4 5 5 5 5
6 6 6 6 6 6 5 5 5 5 5 5 5 4 4 4 5 5 4 4 4 4 4 5 5 4 4 4 4 4 4 4 4 4 4 4 4 4 4 3 3 3 2 2 2 2 2 2 3 4 5 4 4 4 3 3 3 3 3 3 3 3 3 3 2 2 3 3 3 2 2 2 2 2 2 3 3 3 3 3 4 4 4 4 5 5
6 6 6 6 6 6 6 6 6 6 5 5 5 5 4 4 4 4 4 4 4 4 4 5 5 4 4 4 4 4 4 4 3 3 4 4 4 4 4 4 4 3 3 3 3 2 2 3 4 6 7 8 7 6 4 4 3 3 3 3 3 3 3 2 2 2 2 3 3 3 3 2 2 2 2 3 3 4 4 4 4 4 4 4 4 5
6 6 6 6 6 6 6 6 6 6 6 6 6 5 5 5 4 4 4 4 4 4 4 5 5 4 4 4 4 4 4 4 4 4 4 4 4 4 5 4 4 4 3 3 3 3 3 3 3 5 7 10 11 9 6 5 4 3 3 3 3 3 2 2 2 2 2 2 2 3 3 2 2 2 3 3 3 4 4 4 4 3 3 3 4 4
Wind_Direction
133 144 158 164 166 170 181 179 173 166 159 154 151 146 134 114 100 92 90 89 93 98 98 101 117 130 136 137 138 138 137 137 137 138 140 142 142 141 139 137 135 134 134 135 135 133 128 118 111 105 102 97 95 94 92 90 89 88 85 84 83 82 80 80 79 78 77 76 74 71 68 63 57 50 42 37 35 36 36 34 31 28 25 17 5 348
154 152 164 174 175 176 180 181 177 171 164 160 156 152 143 134 122 107 93 83 82 86 92 95 114 128 135 136 138 139 138 139 140 141 145 147 148 147 145 143 141 140 140 141 140 137 129 119 111 105 99 94 91 88 85 84 82 80 78 77 75 74 72 70 68 66 65 63 61 59 56 52 46 39 31 25 22 22 23 23 21 16 11 3 352 340
163 167 174 181 184 184 180 181 179 173 164 158 154 152 149 144 135 121 108 92 75 66 63 66 92 114 126 132 138 141 143 143 145 147 150 153 153 152 149 148 146 145 145 145 144 140 133 124 116 109 104 99 94 90 87 85 83 80 78 76 73 71 69 66 63 60 57 54 52 49 45 40 34 26 18 12 8 8 9 11 9 4 358 350 341 331
169 175 176 180 185 187 179 172 168 162 150 146 147 151 154 148 137 121 111 102 88 68 49 43 54 80 104 121 136 144 148 149 151 152 155 156 156 154 153 151 150 149 149 148 146 141 135 128 121 115 110 105 100 96 93 89 86 83 80 77 74 72 69 65 62 58 54 50 45 40 35 29 22 14 6 359 354 352 352 353 351 347 341 335 327 321
176 176 172 171 174 174 162 145 137 130 121 126 133 139 143 132 121 112 108 102 92 77 56 40 39 47 72 98 130 147 153 154 155 155 157 157 157 156 155 154 153 152 151 150 147 143 137 131 125 120 115 111 107 103 100 96 92 88 84 81 77 74 70 66 61 56 51 45 39 32 25 17 10 3 356 349 343 338 335 333 330 327 322 318 314 310
173 168 161 158 151 139 128 126 123 120 116 115 113 109 100 98 101 106 111 106 96 84 68 48 34 31 43 73 119 148 156 157 157 157 158 159 159 159 158 157 155 154 153 151 148 144 139 134 129 125 122 119 116 113 110 106 101 96 90 85 81 76 71 66 60 54 48 41 33 24 16 8 1 354 348 342 336 331 326 322 317 311 307 303 301 300
155 144 137 131 120 112 113 127 134 136 134 127 116 104 93 91 91 94 98 102 102 99 91 71 46 31 29 60 101 144 159 158 158 159 160 161 161 161 160 159 157 155 153 151 148 145 141 137 133 131 129 128 126 124 121 116 110 104 98 92 86 81 75 69 62 53 45 36 26 16 6 358 351 345 341 338 334 329 325 319 312 305 298 294 291 290
143 136 136 131 123 115 112 125 140 149 150 146 139 130 122 111 99 90 85 87 97 109 117 106 88 61 36 59 97 153 167 162 162 164 164 164 164 162 161 159 157 155 154 152 150 147 144 141 140 138 138 137 135 131 127 121 115 110 105 99 94 88 82 76 67 56 43 29 16 2 350 343 337 334 334 335 334 332 327 321 314 306 299 294 289 285
146 149 156 156 150 143 140 136 138 147 157 158 154 151 146 139 130 116 103 96 97 111 133 137 136 132 120 98 135 181 178 169 168 169 169 168 166 164 161 159 156 154 154 152 151 149 148 147 148 149 149 146 140 134 127 122 117 113 109 106 101 97 93 91 86 73 41 5 341 330 323 321 318 319 324 330 333 333 331 325 320 313 307 301 295 288
147 153 158 160 160 157 156 150 137 119 98 160 158 157 155 151 147 143 139 136 131 124 133 151 154 152 144 143 168 185 177 160 146 134 128 125 141 152 151 151 152 152 151 151 150 150 150 152 157 160 159 152 144 135 128 123 119 116 114 111 110 112 128 173 205 219 224 240 261 281 294 301 304 308 313 320 325 329 331 329 326 323 318 312 305 298
149 153 153 152 151 148 141 133 127 122 115 122 129 141 158 158 156 155 156 158 158 156 154 160 163 161 155 158 169 179 173 152 126 98 81 81 95 112 119 127 134 139 143 144 143 141 140 148 159 166 166 157 148 141 135 130 127 124 122 123 133 187 235 235 232 228 223 227 237 255 277 290 299 302 305 309 313 318 325 333 335 333 328 322 316 310
152 153 150 145 140 130 115 111 116 127 148 147 150 163 182 180 173 166 163 164 165 164 160 156 157 163 163 162 168 174 176 161 146 128 108 97 95 99 107 116 122 127 136 136 132 126 120 121 144 165 169 163 156 150 147 144 142 142 145 171 230 252 254 245 236 228 220 219 225 241 267 287 296 300 300 301 301 308 317 335 344 343 335 329 324 320
150 147 144 145 149 149 139 134 140 155 175 182 186 188 188 184 181 176 169 164 162 162 158 154 151 150 165 169 175 178 177 168 159 152 146 135 126 125 134 137 139 142 147 148 144 135 118 114 130 160 172 169 166 163 162 162 166 176 204 240 256 260 255 245 234 223 213 212 217 233 262 281 291 292 294 292 294 297 306 331 351 350 337 330 327 326
153 150 150 158 165 169 164 164 169 177 188 194 197 195 180 166 168 173 164 149 147 149 152 154 156 160 169 185 204 201 188 172 164 159 159 148 139 139 160 162 159 159 171 178 168 150 132 144 157 169 177 183 179 175 177 180 189 209 234 251 257 257 250 239 228 217 208 206 212 229 251 269 278 282 284 286 289 295 310 343 6 355 339 331 330 331
164 163 168 175 179 180 178 179 183 187 191 192 188 170 137 144 159 171 163 143 137 139 149 155 160 167 176 179 200 223 219 186 174 168 169 154 139 131 182 179 172 170 188 196 178 152 139 168 189 192 190 201 200 196 195 202 214 229 239 250 252 248 241 230 220 210 202 203 211 224 240 254 263 271 276 284 296 315 344 14 24 12 350 340 336 336
173 174 181 185 186 186 183 185 188 190 190 182 166 148 145 157 170 178 172 150 143 146 157 161 166 173 185 181 190 213 230 203 189 180 178 161 145 134 206 202 189 183 190 201 186 161 151 179 201 207 204 203 202 205 211 221 228 233 238 242 242 238 230 220 211 204 199 203 211 221 229 238 250 261 273 291 315 345 12 25 25 18 2 349 342 341
180 186 191 190 190 188 183 186 189 188 179 165 158 159 168 171 174 175 168 151 149 157 171 171 172 176 183 181 186 197 215 212 202 192 186 167 149 135 166 227 209 194 187 194 184 164 165 181 192 201 206 199 199 206 215 224 229 231 234 234 232 227 219 211 204 200 200 204 210 216 218 226 236 250 272 302 329 355 15 22 22 15 4 356 350 346
189 194 198 194 191 185 176 180 183 179 163 153 156 163 172 170 167 165 162 158 162 171 178 181 183 184 179 181 176 177 192 207 206 197 195 176 151 130 139 225 227 212 198 193 181 168 173 183 189 191 196 198 203 209 216 221 224 227 228 227 224 219 212 207 202 200 200 205 208 211 211 213 219 233 262 294 318 341 1 5 3 358 352 359 358 355
197 200 202 200 190 176 167 178 179 176 168 163 161 160 159 155 158 164 169 173 178 182 182 185 189 193 192 175 153 150 173 197 203 201 205 187 156 132 151 194 216 220 215 202 184 165 164 175 188 198 202 206 211 214 217 219 221 222 223 222 219 215 210 205 203 201 201 203 206 207 206 204 207 216 235 260 282 298 312 315 315 320 335 354 358 358
201 203 207 203 187 170 170 185 187 183 179 169 163 160 160 160 167 175 179 186 190 191 185 187 191 192 182 135 123 130 160 184 197 204 211 194 160 138 155 185 203 212 217 205 175 147 157 169 183 198 213 215 216 217 217 218 219 220 221 221 219 215 210 206 203 200 199 200 202 204 203 200 202 208 220 241 254 265 274 282 294 307 320 337 342 342
210 207 209 206 196 183 180 188 188 184 175 163 158 159 163 166 176 183 185 187 190 192 192 194 187 170 132 114 120 135 159 178 190 199 206 196 168 146 150 183 202 211 217 197 165 142 157 169 177 189 204 212 216 217 218 218 219 220 222 222 221 217 212 206 202 198 195 196 199 202 203 202 203 208 221 237 250 260 268 276 286 297 305 310 311 311
225 217 210 211 210 205 191 183 178 172 163 158 160 166 168 174 181 185 182 182 185 189 193 179 124 84 76 90 104 123 157 183 193 195 191 200 184 162 142 170 200 213 220 192 157 142 158 167 174 185 196 208 215 218 220 221 222 224 226 227 224 219 213 206 200 197 194 195 197 201 204 205 209 216 227 242 255 265 272 279 284 289 293 296 295 294
239 233 219 211 214 218 208 169 159 157 158 166 173 178 175 180 183 184 177 178 177 169 139 98 79 72 72 84 95 111 142 206 218 208 190 204 190 161 133 157 188 207 218 182 150 144 158 163 167 174 182 207 222 228 230 229 229 231 232 232 228 221 213 205 200 196 194 195 198 202 207 211 216 222 229 239 250 261 271 277 281 285 289 291 293 294
243 246 240 211 194 183 150 134 141 150 161 171 176 176 166 170 171 166 158 156 144 126 109 105 104 104 98 103 113 126 146 193 240 229 204 204 181 144 125 155 186 200 198 158 139 143 156 160 162 161 166 187 225 244 246 243 242 240 239 235 229 221 212 204 199 197 196 198 202 207 213 218 222 226 231 234 241 249 258 264 271 278 283 287 289 291
257 267 296 223 172 162 153 142 146 152 160 160 150 131 109 102 99 100 106 115 118 121 126 134 138 138 132 135 140 147 154 173 230 240 212 199 163 130 122 160 190 194 172 138 132 144 163 164 163 162 166 170 202 254 263 258 252 247 242 235 227 219 210 203 198 196 197 202 208 216 223 227 232 235 237 238 240 243 247 253 259 265 272 277 281 283
293 295 285 186 171 167 163 156 155 156 158 156 150 140 128 119 114 113 119 128 137 144 152 160 162 159 150 155 159 159 154 166 210 247 235 194 155 136 131 162 193 192 153 132 136 155 177 175 169 165 171 167 183 248 269 265 258 249 240 231 222 213 204 197 193 192 194 202 215 227 237 242 245 246 247 247 246 245 246 249 252 258 264 269 272 273
228 198 186 176 170 167 164 160 159 159 160 159 158 154 149 145 143 145 154 158 161 164 169 175 173 165 158 168 167 160 152 164 187 226 252 214 168 149 138 153 174 178 149 133 139 159 184 181 173 166 168 157 159 210 282 276 265 251 236 223 212 203 194 187 181 179 182 195 219 244 258 261 259 257 255 252 250 248 246 247 249 253 259 263 266 265
127 147 159 161 161 160 159 159 160 161 162 162 161 160 160 160 163 167 172 168 169 173 180 182 177 169 167 172 164 151 152 169 179 189 216 222 189 153 131 142 158 168 151 133 132 148 183 189 179 166 161 153 153 172 301 297 279 257 230 209 197 187 178 172 167 163 163 172 220 275 286 282 276 268 262 257 252 249 247 246 248 250 254 256 256 253
121 130 138 142 144 146 149 152 156 160 162 162 163 165 170 174 177 177 171 167 170 177 186 185 179 169 160 153 142 140 162 179 176 171 182 201 183 143 123 138 154 165 158 140 141 157 187 192 184 172 163 157 156 160 177 296 297 267 199 180 173 167 162 158 154 149 141 132 9 317 310 300 291 282 272 264 258 252 249 247 247 249 250 250 249 247
125 127 127 129 132 136 139 144 150 156 160 162 165 170 180 188 187 176 161 165 172 180 183 179 170 156 143 136 139 154 183 178 168 163 174 187 175 145 134 146 159 169 175 162 163 174 186 176 169 163 160 161 165 168 172 164 135 120 134 152 152 148 142 137 134 129 114 88 12 330 316 305 297 290 281 273 265 259 253 250 249 249 249 249 246 244
131 126 123 125 129 132 135 139 145 150 155 159 163 168 179 189 176 158 151 165 174 178 174 166 157 150 150 150 161 176 182 161 157 161 176 184 169 146 146 153 159 169 200 198 190 179 169 159 155 154 160 170 173 173 169 161 150 143 145 151 147 138 126 123 122 122 111 87 355 319 307 298 294 289 283 277 270 264 258 253 251 250 251 250 247 244
128 123 122 124 126 128 132 136 140 143 148 151 150 141 109 96 105 123 140 160 167 167 159 153 152 157 165 173 179 175 148 137 151 164 176 173 153 134 149 152 153 157 195 257 269 242 164 145 143 150 162 174 177 174 168 163 157 159 167 171 160 144 132 139 144 150 160 172 242 276 282 283 282 281 279 275 271 266 261 256 253 251 251 251 250 249
133 129 127 124 124 124 128 131 132 133 133 131 123 109 93 90 93 101 114 128 139 145 145 148 153 160 170 174 165 133 105 124 151 165 171 159 140 131 147 150 150 151 162 227 290 306 337 107 125 142 162 173 177 176 174 173 171 175 190 195 184 168 157 170 181 192 203 214 229 243 254 262 266 267 269 268 266 263 260 256 253 252 252 252 251 251
147 145 141 137 134 132 133 131 128 125 120 114 110 106 103 102 101 101 100 99 104 116 134 148 157 162 167 163 148 125 113 129 151 163 168 154 139 136 149 155 155 155 160 174 198 235 12 94 123 143 155 167 176 182 182 179 177 179 196 216 210 195 176 187 202 217 225 234 241 245 245 248 250 252 256 256 256 255 254 252 250 249 249 249 249 249
160 157 153 149 146 144 141 137 132 127 121 116 113 112 112 111 109 105 100 93 87 85 94 119 143 157 162 163 160 150 137 139 152 161 165 154 141 138 149 161 163 163 165 172 176 175 162 152 156 160 156 164 174 181 183 177 174 173 186 216 225 218 196 200 214 229 241 248 251 251 248 246 244 244 246 246 248 249 251 251 250 250 249 249 249 248
169 166 162 159 156 153 149 146 142 137 131 126 121 117 113 109 104 99 91 86 80 75 71 65 64 69 89 134 148 144 135 137 149 159 164 157 148 143 149 161 167 169 170 173 176 176 169 163 169 175 179 177 175 172 168 167 170 177 188 204 213 216 207 207 220 237 249 254 256 255 251 247 246 245 244 243 245 249 252 253 254 254 252 252 252 252
175 172 168 166 163 160 157 155 152 149 144 139 131 121 109 101 95 89 83 78 78 78 77 69 60 50 40 39 56 92 119 133 147 157 163 159 154 150 146 152 163 171 175 173 174 174 170 164 169 181 199 199 188 167 152 158 171 186 195 199 204 208 205 203 211 228 245 254 256 256 251 247 245 243 241 240 241 245 249 252 251 251 253 254 255 256
179 176 173 172 169 167 164 163 161 157 150 141 130 118 105 97 92 88 83 79 79 82 87 82 73 62 52 54 60 78 109 129 142 151 157 156 156 152 138 138 154 170 182 178 175 174 177 174 176 182 195 203 195 170 147 158 173 186 191 192 199 207 211 206 207 216 232 244 250 251 247 243 240 237 234 231 230 232 236 234 233 235 241 245 250 254
184 181 178 178 178 176 173 170 163 152 138 126 117 109 104 99 95 92 88 83 80 80 83 85 83 75 65 66 70 80 96 116 131 141 147 150 154 154 141 141 150 162 173 182 185 187 191 194 192 189 185 185 181 172 160 168 180 186 183 188 200 210 214 210 208 211 222 233 240 242 241 236 232 230 229 225 225 227 229 227 224 223 226 230 238 244
187 184 181 181 182 181 175 161 145 130 120 114 111 109 109 107 104 101 98 93 87 84 85 87 86 82 73 69 69 73 81 100 119 130 134 141 151 160 155 148 148 151 156 174 192 201 206 212 214 208 197 185 178 175 171 179 187 192 192 201 209 210 205 201 202 206 215 225 233 238 239 233 227 224 223 222 223 226 228 227 223 222 222 227 232 236
188 187 182 178 172 161 137 118 112 113 116 118 121 124 128 128 127 125 121 117 113 110 111 108 104 95 82 70 65 65 68 79 94 103 101 114 141 163 163 150 146 147 153 171 190 206 215 217 217 213 209 199 193 189 188 188 190 195 204 218 227 226 212 207 203 201 205 218 230 236 238 233 226 221 221 220 222 224 227 231 231 229 227 229 232 235
189 187 179 166 151 133 112 106 109 116 124 132 140 147 152 152 152 152 150 148 147 146 148 145 139 130 120 108 93 78 65 65 73 81 82 81 95 159 178 160 151 151 160 174 190 204 216 221 219 214 207 203 202 205 208 201 195 197 206 222 235 245 247 221 198 182 193 208 217 222 229 227 223 219 219 222 224 225 227 233 236 237 236 232 232 234
188 181 163 144 131 123 121 121 125 132 141 151 158 162 163 165 166 166 163 162 160 159 160 163 160 154 149 145 139 129 106 85 81 89 100 101 108 198 214 186 171 167 172 184 192 200 209 220 225 224 215 210 212 218 222 217 209 205 208 215 220 226 237 201 173 163 184 198 202 207 215 220 222 223 227 235 239 238 232 230 231 233 236 236 233 231
176 157 134 126 124 126 131 139 146 154 161 165 166 166 166 172 174 172 169 165 161 160 161 166 168 167 165 163 159 154 146 134 118 104 104 122 144 192 238 219 201 191 191 199 200 196 197 210 218 222 219 218 222 228 231 231 226 220 212 210 213 220 233 216 179 170 183 195 198 199 205 213 222 235 246 247 246 242 235 229 226 225 228 231 232 232
150 135 128 130 135 142 150 157 161 165 169 170 168 165 164 173 177 176 172 165 160 159 162 167 171 174 177 174 168 160 154 151 148 145 138 136 148 173 216 225 219 212 210 215 215 211 203 204 204 204 201 210 221 229 234 235 235 232 224 215 216 223 234 238 225 209 206 207 204 200 196 197 214 240 249 246 241 237 232 229 227 225 223 224 227 230
144 141 142 145 151 158 163 164 165 167 171 171 167 163 162 170 174 175 170 163 159 159 163 171 176 180 181 176 170 165 162 162 162 159 153 149 154 165 185 207 220 226 225 227 230 231 230 225 209 195 186 201 215 223 229 231 233 234 230 220 219 222 228 230 229 226 224 223 218 205 181 176 207 237 245 244 241 237 232 230 230 229 226 224 225 226
154 153 154 156 160 164 167 165 167 170 173 171 166 160 158 166 170 171 166 161 158 158 163 173 182 186 183 176 173 172 173 173 169 163 156 153 153 156 162 176 196 221 242 249 252 255 258 274 265 235 208 210 215 219 221 222 225 228 230 224 222 224 226 225 221 219 218 222 220 204 165 181 217 236 241 244 244 242 236 232 230 230 230 229 228 228
161 160 160 161 164 167 168 168 170 173 175 170 163 157 157 165 169 168 162 161 160 160 164 174 183 188 185 179 178 179 181 178 172 165 157 152 149 149 150 155 163 176 202 236 261 273 278 291 286 270 249 237 232 229 223 219 219 221 226 225 226 228 231 227 219 211 207 209 205 194 192 215 230 240 246 250 249 246 241 234 228 225 225 227 229 230
164 164 163 164 167 169 170 170 172 174 175 168 161 156 159 167 171 170 163 163 164 166 170 177 182 186 186 182 180 181 184 183 176 165 157 151 147 146 146 150 155 160 167 182 204 231 252 260 257 252 249 247 246 246 244 232 225 222 224 225 227 230 232 228 220 210 204 189 172 170 202 229 243 252 263 263 262 259 255 247 237 228 222 223 226 229
167 166 165 167 170 171 170 170 173 175 175 168 163 159 160 168 172 172 167 168 170 173 176 180 183 186 188 183 178 176 181 184 180 171 161 153 149 149 150 154 158 163 166 176 187 201 216 227 231 231 231 231 234 239 245 242 237 230 226 225 225 226 229 228 220 210 205 184 164 161 193 221 239 248 252 257 262 264 264 258 249 239 227 222 222 226
168 168 167 170 172 172 171 172 175 177 176 170 165 162 163 169 172 173 171 176 179 182 182 185 187 189 190 184 178 175 179 183 183 178 168 156 153 155 157 161 167 172 177 182 189 198 210 219 222 219 215 214 216 221 231 234 233 229 226 222 219 218 220 223 216 205 204 190 169 162 177 203 217 223 226 239 251 259 260 256 250 242 230 222 221 224